Satellite-Ground Cal/Val Region Overpasses Predictions

Prediction of Satellite NPP Overpassing Cal/Val Region: PacNW

Region Location: (Latitude: 10.00, Longitude: 139.50) to (Latitude: 22.70, Longitude: 165.60).

Table of predicted overpasses for the next 14.0 days since TLE Epoch: 11/17/2018
Interval Starting Time Starting Location Ending Time Ending Location
1 11/17/2018 15:49:42 ( 22.66, 147.52) 11/17/2018 15:53:17 ( 10.04, 144.53)
2 11/18/2018 02:58:47 ( 10.01, 155.06) 11/18/2018 03:02:23 ( 22.69, 152.05)
3 11/18/2018 15:30:40 ( 22.70, 152.29) 11/18/2018 15:34:16 ( 10.02, 149.28)
4 11/19/2018 02:39:46 ( 10.04, 159.81) 11/19/2018 02:43:21 ( 22.66, 156.81)
5 11/19/2018 15:11:39 ( 22.68, 157.04) 11/19/2018 15:15:14 ( 10.05, 154.04)
6 11/20/2018 02:20:44 ( 10.06, 164.56) 11/20/2018 02:24:19 ( 22.68, 161.56)
7 11/20/2018 14:52:37 ( 22.65, 161.79) 11/20/2018 14:56:12 ( 10.03, 158.79)
8 11/21/2018 03:43:12 ( 10.03, 143.95) 11/21/2018 03:46:47 ( 22.65, 140.95)
9 11/21/2018 14:34:42 ( 18.76, 165.59) 11/21/2018 14:37:11 ( 10.01, 163.54)
10 11/21/2018 16:15:05 ( 22.68, 141.18) 11/21/2018 16:17:03 ( 15.76, 139.50)
11 11/22/2018 03:24:10 ( 10.05, 148.70) 11/22/2018 03:27:45 ( 22.67, 145.70)
12 11/22/2018 15:56:03 ( 22.66, 145.93) 11/22/2018 15:59:38 ( 10.04, 142.93)
13 11/23/2018 03:05:08 ( 10.01, 153.47) 11/23/2018 03:08:44 ( 22.69, 150.45)
14 11/23/2018 15:37:01 ( 22.70, 150.69) 11/23/2018 15:40:37 ( 10.02, 147.68)
15 11/24/2018 02:46:06 ( 10.03, 158.22) 11/24/2018 02:49:41 ( 22.66, 155.22)
16 11/24/2018 15:17:59 ( 22.67, 155.44) 11/24/2018 15:21:34 ( 10.05, 152.45)
17 11/25/2018 02:27:05 ( 10.06, 162.97) 11/25/2018 02:30:40 ( 22.68, 159.97)
18 11/25/2018 14:58:58 ( 22.65, 160.20) 11/25/2018 15:02:33 ( 10.03, 157.20)
19 11/26/2018 02:10:37 ( 19.13, 165.60) 11/26/2018 02:11:37 ( 22.65, 164.73)
20 11/26/2018 03:49:32 ( 10.03, 142.36) 11/26/2018 03:52:57 ( 22.07, 139.50)
21 11/26/2018 14:39:55 ( 22.69, 164.96) 11/26/2018 14:43:31 ( 10.01, 161.95)
22 11/26/2018 16:21:25 ( 22.68, 139.58) 11/26/2018 16:21:30 ( 22.39, 139.51)
23 11/27/2018 03:30:31 ( 10.05, 147.11) 11/27/2018 03:34:06 ( 22.68, 144.11)
24 11/27/2018 16:02:24 ( 22.66, 144.33) 11/27/2018 16:05:59 ( 10.04, 141.34)
25 11/28/2018 03:11:29 ( 10.02, 151.87) 11/28/2018 03:15:04 ( 22.64, 148.87)
26 11/28/2018 15:43:21 ( 22.69, 149.10) 11/28/2018 15:46:57 ( 10.01, 146.09)
27 11/29/2018 02:52:27 ( 10.04, 156.62) 11/29/2018 02:56:02 ( 22.67, 153.62)
28 11/29/2018 15:24:20 ( 22.67, 153.85) 11/29/2018 15:27:55 ( 10.05, 150.85)
29 11/30/2018 02:33:25 ( 10.01, 161.39) 11/30/2018 02:37:01 ( 22.69, 158.37)
30 11/30/2018 15:05:18 ( 22.64, 158.60) 11/30/2018 15:08:53 ( 10.02, 155.60)
31 12/01/2018 02:15:03 ( 12.39, 165.60) 12/01/2018 02:17:58 ( 22.66, 163.14)


NCC Satellite Cal/Val Overpasses Prediction Service
